EW5962 Weather Reports


time (UTC)temp
C
wind
direction
speed
KPH
gust
KPH
rain 1hr
cm
rain 24hr
cm
rain mn
cm
humidity
%
barometer
mb
20260510202510 28 173 0.0 8.0 0.00 0.00 0.00 28 1012.9
20260510202106 29 172 1.6 8.0 0.00 0.00 0.00 31 1013.0
20260510201503 29 167 0.0 4.8 0.00 0.00 0.00 28 1013.1
20260510201009 29 205 0.0 4.8 0.00 0.00 0.00 29 1013.1
20260510200604 29 237 0.0 8.0 0.00 0.00 0.00 27 1013.2
20260510200003 29 313 3.2 8.0 0.00 0.00 0.00 27 1013.2
20260510195509 29 167 0.0 6.4 0.00 0.00 0.00 28 1013.2
20260510195104 29 247 0.0 6.4 0.00 0.00 0.00 29 1013.2
20260510194503 29 156 0.0 1.6 0.00 0.00 0.00 29 1013.2
20260510194009 29 168 0.0 0.0 0.00 0.00 0.00 26 1013.2
20260510193603 29 186 0.0 3.2 0.00 0.00 0.00 24 1013.3
20260510193003 30 94 0.0 6.4 0.00 0.00 0.00 32 1013.4
20260510192512 30 273 0.0 3.2 0.00 0.00 0.00 30 1013.4
20260510192103 29 274 0.0 3.2 0.00 0.00 0.00 27 1013.4
20260510191504 29 143 0.0 0.0 0.00 0.00 0.00 30 1013.4
20260510191010 28 191 0.0 6.4 0.00 0.00 0.00 31 1013.4
20260510190606 28 192 0.0 6.4 0.00 0.00 0.00 28 1013.4
20260510190009 28 193 1.6 9.7 0.00 0.00 0.00 30 1013.5
20260510185509 28 161 0.0 6.4 0.00 0.00 0.00 29 1013.5
20260510185103 28 186 0.0 6.4 0.00 0.00 0.00 29 1013.6
20260510184512 28 230 0.0 6.4 0.00 0.00 0.00 32 1013.6
20260510184009 28 202 0.0 4.8 0.00 0.00 0.00 30 1013.6
20260510183603 28 201 0.0 9.7 0.00 0.00 0.00 27 1013.6
20260510183002 28 191 3.2 9.7 0.00 0.00 0.00 29 1013.6
20260510182509 28 204 0.0 6.4 0.00 0.00 0.00 32 1013.7
20260510182103 28 152 1.6 8.0 0.00 0.00 0.00 32 1013.6
20260510181506 28 4 3.2 8.0 0.00 0.00 0.00 32 1013.7
20260510181010 28 195 3.2 8.0 0.00 0.00 0.00 32 1013.9
20260510180603 28 202 0.0 0.0 0.00 0.00 0.00 32 1013.9
20260510180003 28 38 0.0 0.0 0.00 0.00 0.00 33 1014.1
20260510175510 28 200 0.0 0.0 0.00 0.00 0.00 29 1014.0
20260510175103 28 164 0.0 0.0 0.00 0.00 0.00 32 1014.0
20260510174504 28 297 0.0 0.0 0.00 0.00 0.00 31 1014.1
20260510174010 28 212 0.0 0.0 0.00 0.00 0.00 29 1014.1
20260510173603 27 349 0.0 0.0 0.00 0.00 0.00 32 1014.1
20260510173003 27 187 0.0 0.0 0.00 0.00 0.00 32 1014.2
20260510172509 27 187 0.0 0.0 0.00 0.00 0.00 32 1014.2
20260510172103 27 188 0.0 0.0 0.00 0.00 0.00 37 1014.2
20260510171504 27 197 0.0 0.0 0.00 0.00 0.00 33 1014.3
20260510171011 27 186 0.0 1.6 0.00 0.00 0.00 36 1014.4
20260510170603 27 188 0.0 1.6 0.00 0.00 0.00 34 1014.3
20260510170003 27 196 0.0 0.0 0.00 0.00 0.00 38 1014.3
20260510165509 27 28 0.0 0.0 0.00 0.00 0.00 37 1014.3
20260510165103 26 217 0.0 0.0 0.00 0.00 0.00 34 1014.4
20260510164503 26 220 0.0 0.0 0.00 0.00 0.00 33 1014.4
20260510164009 27 174 0.0 0.0 0.00 0.00 0.00 34 1014.4
20260510163603 27 228 0.0 0.0 0.00 0.00 0.00 32 1014.5
20260510163004 27 162 0.0 1.6 0.00 0.00 0.00 44 1014.5
20260510162510 27 161 0.0 4.8 0.00 0.00 0.00 39 1014.6
20260510162102 27 94 0.0 6.4 0.00 0.00 0.00 36 1014.7
20260510161503 27 345 0.0 6.4 0.00 0.00 0.00 39 1014.7
20260510161009 26 22 1.6 6.4 0.00 0.00 0.00 40 1014.7
20260510160604 26 305 0.0 8.0 0.00 0.00 0.00 36 1014.7
20260510160003 26 315 0.0 8.0 0.00 0.00 0.00 34 1014.8
20260510155510 26 168 0.0 0.0 0.00 0.00 0.00 40 1014.7
20260510155103 26 143 0.0 0.0 0.00 0.00 0.00 40 1014.8
20260510154504 26 6 0.0 8.0 0.00 0.00 0.00 42 1014.7
20260510154011 26 42 1.6 8.0 0.00 0.00 0.00 43 1014.8
20260510153606 26 349 0.0 3.2 0.00 0.00 0.00 42 1014.7
20260510153005 26 289 0.0 4.8 0.00 0.00 0.00 46 1014.7
20260510152509 25 349 0.0 4.8 0.00 0.00 0.00 51 1014.8
20260510152103 25 296 0.0 6.4 0.00 0.00 0.00 47 1014.7
20260510151503 25 342 0.0 9.7 0.00 0.00 0.00 49 1014.8
20260510151013 24 38 1.6 9.7 0.00 0.00 0.00 50 1014.8
20260510150604 24 18 0.0 6.4 0.00 0.00 0.00 53 1014.9
20260510150003 23 176 0.0 8.0 0.00 0.00 0.00 49 1014.8
20260510145513 23 185 0.0 8.0 0.00 0.00 0.00 54 1014.9
20260510145103 23 161 1.6 8.0 0.00 0.00 0.00 51 1015.0
20260510144503 22 197 0.0 8.0 0.00 0.00 0.00 54 1014.9
20260510144012 22 329 3.2 8.0 0.00 0.00 0.00 59 1014.9
20260510143603 21 167 0.0 6.4 0.00 0.00 0.00 59 1014.9
20260510143006 21 70 0.0 8.0 0.00 0.00 0.00 62 1014.9
20260510142509 20 44 1.6 8.0 0.00 0.00 0.00 61 1015.0
20260510142103 20 29 0.0 9.7 0.00 0.00 0.00 65 1015.0
20260510141503 20 129 0.0 3.2 0.00 0.00 0.00 69 1015.0
20260510141015 19 176 0.0 0.0 0.00 0.00 0.00 70 1014.9
20260510140603 18 40 0.0 1.6 0.00 0.00 0.00 70 1014.9
20260510140003 18 348 0.0 0.0 0.00 0.00 0.00 75 1015.0
20260510135509 17 164 0.0 0.0 0.00 0.00 0.00 77 1014.9
20260510135103 17 136 0.0 1.6 0.00 0.00 0.00 81 1014.9
20260510134504 16 170 0.0 1.6 0.00 0.00 0.00 86 1014.9
20260510134009 16 178 0.0 0.0 0.00 0.00 0.00 91 1015.0
20260510133604 16 352 0.0 0.0 0.00 0.00 0.00 91 1015.0
20260510133008 15 115 0.0 0.0 0.00 0.00 0.00 96 1014.9
20260510132509 15 64 0.0 0.0 0.00 0.00 0.00 98 1015.0
20260510132103 15 84 0.0 0.0 0.00 0.00 0.00 98 1015.0
20260510131504 15 306 0.0 0.0 0.00 0.00 0.00 98 1015.0
20260510131009 15 150 0.0 0.0 0.00 0.00 0.00 98 1015.0
20260510130603 15 150 0.0 0.0 0.00 0.00 0.00 98 1014.9
20260510130003 14 150 0.0 0.0 0.00 0.00 0.00 98 1015.1
20260510125509 14 181 0.0 1.6 0.00 0.00 0.00 98 1015.1
20260510125104 13 181 0.0 1.6 0.00 0.00 0.00 98 1015.0
20260510124504 13 181 0.0 0.0 0.00 0.00 0.00 98 1014.9
20260510124011 13 181 0.0 0.0 0.00 0.00 0.00 97 1014.9
20260510123603 12 181 0.0 0.0 0.00 0.00 0.00 97 1014.8
20260510123005 12 181 0.0 0.0 0.00 0.00 0.00 97 1014.6
20260510122509 12 181 0.0 0.0 0.00 0.00 0.00 97 1014.5
20260510122103 12 181 0.0 0.0 0.00 0.00 0.00 97 1014.5
20260510121503 12 181 0.0 0.0 0.00 0.00 0.00 97 1014.4
20260510121012 11 181 0.0 0.0 0.00 0.00 0.00 97 1014.2
20260510120604 11 181 0.0 0.0 0.00 0.00 0.00 97 1014.0
20260510120002 11 181 0.0 0.0 0.00 0.00 0.00 97 1014.0
20260510115513 11 181 0.0 0.0 0.00 0.00 0.00 97 1014.0
20260510115103 11 181 0.0 0.0 0.00 0.00 0.00 97 1013.9
20260510114503 11 181 0.0 0.0 0.00 0.00 0.00 97 1013.8
20260510114009 11 181 0.0 0.0 0.00 0.00 0.00 96 1013.7
20260510113606 11 181 0.0 0.0 0.00 0.00 0.00 96 1013.8
20260510113004 11 181 0.0 0.0 0.00 0.00 0.00 96 1013.6
20260510112515 11 181 0.0 0.0 0.00 0.00 0.00 96 1013.5
20260510112104 11 181 0.0 0.0 0.00 0.00 0.00 96 1013.5
20260510111502 11 181 0.0 0.0 0.00 0.00 0.00 96 1013.4
20260510111009 11 181 0.0 0.0 0.00 0.00 0.00 96 1013.3
20260510110603 11 181 0.0 0.0 0.00 0.00 0.00 96 1013.3
20260510110007 11 181 0.0 0.0 0.00 0.00 0.00 96 1013.1
20260510105509 11 181 0.0 0.0 0.00 0.00 0.00 96 1013.0
20260510105103 11 181 0.0 0.0 0.00 0.00 0.00 95 1013.0
20260510104504 11 181 0.0 0.0 0.00 0.00 0.00 95 1012.9
20260510104008 11 181 0.0 0.0 0.00 0.00 0.00 95 1012.8
20260510103603 11 181 0.0 0.0 0.00 0.00 0.00 95 1012.8
20260510103003 11 181 0.0 0.0 0.00 0.00 0.00 95 1012.6
20260510102515 11 181 0.0 0.0 0.00 0.00 0.00 95 1012.6
20260510102104 11 181 0.0 0.0 0.00 0.00 0.00 95 1012.5
20260510101503 11 181 0.0 0.0 0.00 0.00 0.00 95 1012.4
20260510101009 11 181 0.0 0.0 0.00 0.00 0.00 95 1012.3
20260510100605 11 181 0.0 0.0 0.00 0.00 0.00 95 1012.3
20260510100005 11 181 0.0 0.0 0.00 0.00 0.00 95 1012.2
20260510095509 11 181 0.0 0.0 0.00 0.00 0.00 95 1012.1
20260510095105 11 181 0.0 0.0 0.00 0.00 0.00 95 1012.0
20260510094504 11 181 0.0 0.0 0.00 0.00 0.00 95 1012.1
20260510094009 11 181 0.0 0.0 0.00 0.00 0.00 95 1012.1
20260510093605 12 181 0.0 0.0 0.00 0.00 0.00 95 1012.1
20260510093003 12 181 0.0 0.0 0.00 0.00 0.00 95 1012.1
20260510092509 12 181 0.0 0.0 0.00 0.00 0.00 95 1012.0
20260510092103 12 181 0.0 0.0 0.00 0.00 0.00 95 1012.0
20260510091503 12 181 0.0 0.0 0.00 0.00 0.00 95 1012.0
20260510091009 12 181 0.0 0.0 0.00 0.00 0.00 95 1011.9
20260510090605 12 181 0.0 0.0 0.00 0.00 0.00 95 1011.8
20260510090003 12 181 0.0 0.0 0.00 0.00 0.00 95 1011.9
20260510085511 12 181 0.0 0.0 0.00 0.00 0.00 95 1011.8
20260510085104 12 181 0.0 0.0 0.00 0.00 0.00 95 1011.7
20260510084505 12 181 0.0 0.0 0.00 0.00 0.00 95 1011.7
20260510084009 12 181 0.0 0.0 0.00 0.00 0.00 95 1011.7
20260510083602 12 181 0.0 0.0 0.00 0.00 0.00 95 1011.5
20260510083003 12 181 0.0 0.0 0.00 0.00 0.00 95 1011.5
20260510082510 12 181 0.0 0.0 0.00 0.00 0.00 95 1011.6
20260510082104 12 181 0.0 0.0 0.00 0.00 0.00 95 1011.6
20260510081504 12 181 0.0 0.0 0.00 0.00 0.00 95 1011.5
20260510081009 12 181 0.0 0.0 0.00 0.00 0.00 95 1011.4
20260510080604 12 181 0.0 0.0 0.00 0.00 0.00 95 1011.2
20260510080004 12 181 0.0 0.0 0.00 0.00 0.00 95 1011.1
20260510075509 12 181 0.0 0.0 0.00 0.00 0.00 95 1011.2
20260510075104 13 181 0.0 0.0 0.00 0.00 0.00 95 1011.2
20260510074503 13 181 0.0 0.0 0.00 0.00 0.00 95 1011.1
20260510074009 13 181 0.0 0.0 0.00 0.00 0.00 95 1011.1
20260510073602 13 181 0.0 0.0 0.00 0.00 0.00 95 1011.1
20260510073004 13 181 0.0 0.0 0.00 0.00 0.00 95 1011.1
20260510072508 13 181 0.0 0.0 0.00 0.00 0.00 95 1011.1
20260510072103 13 181 0.0 0.0 0.00 0.00 0.00 95 1011.1
20260510071504 13 181 0.0 0.0 0.00 0.00 0.00 95 1011.0
20260510071008 13 181 0.0 0.0 0.00 0.00 0.00 95 1011.0
20260510070602 13 181 0.0 0.0 0.00 0.00 0.00 95 1011.0
20260510070003 13 181 0.0 0.0 0.00 0.00 0.00 95 1011.0
20260510065514 13 181 0.0 0.0 0.00 0.00 0.00 95 1010.9
20260510065103 13 181 0.0 0.0 0.00 0.00 0.00 95 1010.9
20260510064502 13 181 0.0 0.0 0.00 0.00 0.00 95 1011.1
20260510064009 13 181 0.0 0.0 0.00 0.00 0.00 95 1011.1
20260510063604 13 181 0.0 0.0 0.00 0.00 0.00 95 1011.1
20260510063003 13 181 0.0 0.0 0.00 0.00 0.00 95 1011.0
20260510062508 13 181 0.0 0.0 0.00 0.00 0.00 95 1011.0
20260510062103 13 181 0.0 0.0 0.00 0.00 0.00 95 1010.9
20260510061505 13 181 0.0 0.0 0.00 0.00 0.00 95 1011.0
20260510061009 13 181 0.0 0.0 0.00 0.00 0.00 95 1011.1
20260510060602 13 181 0.0 0.0 0.00 0.00 0.00 95 1011.1
20260510060004 13 181 0.0 0.0 0.00 0.00 0.00 95 1011.0
20260510055513 13 181 0.0 0.0 0.00 0.00 0.00 95 1011.0
20260510055102 13 181 0.0 0.0 0.00 0.00 0.00 95 1010.9
20260510054503 14 181 0.0 0.0 0.00 0.00 0.00 94 1011.0
20260510054008 14 181 0.0 0.0 0.00 0.00 0.00 94 1010.9
20260510053601 14 181 0.0 0.0 0.00 0.00 0.00 94 1011.0
20260510053002 14 181 0.0 0.0 0.00 0.00 0.00 94 1011.1
20260510052509 14 181 0.0 0.0 0.00 0.00 0.00 94 1011.2
20260510052102 14 181 0.0 0.0 0.00 0.00 0.00 94 1011.3
20260510051505 14 181 0.0 0.0 0.00 0.00 0.00 94 1011.2
20260510051009 14 181 0.0 0.0 0.00 0.00 0.00 94 1011.2
20260510050604 14 181 0.0 0.0 0.00 0.00 0.00 94 1011.3
20260510050003 14 181 0.0 0.0 0.00 0.00 0.00 94 1011.3
20260510045510 14 181 0.0 0.0 0.00 0.00 0.00 94 1011.4
20260510045103 14 181 0.0 0.0 0.00 0.00 0.00 94 1011.3
20260510044502 14 181 0.0 0.0 0.00 0.00 0.00 94 1011.4
20260510044009 14 181 0.0 0.0 0.00 0.00 0.00 94 1011.4
20260510043603 14 181 0.0 0.0 0.00 0.00 0.00 94 1011.4
20260510043003 14 181 0.0 0.0 0.00 0.00 0.00 94 1011.5
20260510042509 14 181 0.0 0.0 0.00 0.00 0.00 94 1011.4
20260510042103 14 181 0.0 0.0 0.00 0.00 0.00 94 1011.2
20260510041503 14 181 0.0 0.0 0.00 0.00 0.00 94 1011.4
20260510041002 15 181 0.0 0.0 0.00 0.00 0.00 94 1011.4
20260510040503 15 181 0.0 0.0 0.00 0.00 0.00 93 1011.4
20260510040010 15 181 0.0 0.0 0.00 0.00 0.00 93 1011.4
20260510035604 15 181 0.0 0.0 0.00 0.00 0.00 93 1011.3
20260510035003 15 181 0.0 0.0 0.00 0.00 0.00 93 1011.4
20260510034509 15 181 0.0 0.0 0.00 0.00 0.00 93 1011.3
20260510034103 15 181 0.0 0.0 0.00 0.00 0.00 93 1011.4
20260510033503 15 181 0.0 0.0 0.00 0.00 0.00 93 1011.3
20260510033008 15 181 0.0 0.0 0.00 0.00 0.00 93 1011.3
20260510032603 15 181 0.0 0.0 0.00 0.00 0.00 93 1011.4
20260510032003 15 181 0.0 0.0 0.00 0.00 0.00 93 1011.3
20260510031509 15 181 0.0 0.0 0.00 0.00 0.00 92 1011.3
20260510031104 15 181 0.0 0.0 0.00 0.00 0.00 92 1011.3
20260510030503 15 181 0.0 0.0 0.00 0.00 0.00 92 1011.4
20260510030009 15 181 0.0 0.0 0.00 0.00 0.00 92 1011.3
20260510025602 15 181 0.0 0.0 0.00 0.00 0.00 92 1011.3
20260510025003 15 181 0.0 0.0 0.00 0.00 0.00 92 1011.2
20260510024511 15 181 0.0 0.0 0.00 0.00 0.00 92 1011.2
20260510024102 15 181 0.0 0.0 0.00 0.00 0.00 92 1011.2
20260510023503 15 181 0.0 0.0 0.00 0.00 0.00 91 1011.2
20260510023009 15 181 0.0 0.0 0.00 0.00 0.00 91 1011.1
20260510022603 15 181 0.0 0.0 0.00 0.00 0.00 91 1011.1
20260510022003 15 181 0.0 0.0 0.00 0.00 0.00 91 1011.0
20260510021513 16 181 0.0 0.0 0.00 0.00 0.00 91 1011.0
20260510021103 16 181 0.0 0.0 0.00 0.00 0.00 90 1010.9
20260510020502 16 181 0.0 0.0 0.00 0.00 0.00 90 1011.0
20260510020008 16 181 0.0 0.0 0.00 0.00 0.00 90 1010.9
20260510015604 16 181 0.0 0.0 0.00 0.00 0.00 90 1010.9
20260510015002 16 181 0.0 0.0 0.00 0.00 0.00 89 1010.8
20260510014508 16 181 0.0 0.0 0.00 0.00 0.00 88 1010.7
20260510014103 16 181 0.0 0.0 0.00 0.00 0.00 88 1010.7
20260510013503 16 181 0.0 0.0 0.00 0.00 0.00 88 1010.6
20260510013009 16 181 0.0 0.0 0.00 0.00 0.00 88 1010.5
20260510012602 17 181 0.0 0.0 0.00 0.00 0.00 87 1010.5
20260510012002 17 181 0.0 0.0 0.00 0.00 0.00 87 1010.4
20260510011510 17 181 0.0 0.0 0.00 0.00 0.00 87 1010.4
20260510011102 17 181 0.0 0.0 0.00 0.00 0.00 86 1010.4
20260510010503 17 181 0.0 0.0 0.00 0.00 0.00 86 1010.2
20260510010009 17 181 0.0 0.0 0.00 0.00 0.00 86 1010.0
20260510005603 17 181 0.0 0.0 0.00 0.00 0.00 85 1009.9
20260510005004 17 181 0.0 0.0 0.00 0.00 0.00 85 1009.7
20260510004509 17 181 0.0 0.0 0.00 0.00 0.00 84 1009.7
20260510004104 18 181 0.0 0.0 0.00 0.00 0.00 84 1009.6
20260510003503 18 181 0.0 0.0 0.00 0.00 0.00 84 1009.6
20260510003020 18 181 0.0 0.0 0.00 0.00 0.00 84 1009.5
20260510002604 18 181 0.0 0.0 0.00 0.00 0.00 83 1009.5
20260510002003 18 181 0.0 0.0 0.00 0.00 0.00 82 1009.6
20260510001508 19 181 0.0 0.0 0.00 0.00 0.00 81 1009.5
20260510001104 19 181 0.0 0.0 0.00 0.00 0.00 80 1009.3
20260510000503 19 181 0.0 0.0 0.00 0.00 0.00 79 1009.2
20260510000008 20 181 0.0 0.0 0.00 0.00 0.00 78 1009.2
20260509235602 20 181 0.0 0.0 0.00 0.00 0.00 77 1009.2
20260509235003 20 181 0.0 0.0 0.00 0.00 0.00 77 1009.2
20260509234513 20 181 0.0 0.0 0.00 0.00 0.00 77 1009.1
20260509234103 20 181 0.0 0.0 0.00 0.00 0.00 77 1009.1
20260509233503 20 169 0.0 0.0 0.00 0.00 0.00 77 1009.0
20260509233020 20 169 0.0 0.0 0.00 0.00 0.00 76 1009.0
20260509232605 20 169 0.0 0.0 0.00 0.00 0.00 76 1009.1
20260509232002 20 169 0.0 3.2 0.00 0.00 0.00 76 1009.1
20260509231508 20 179 0.0 0.0 0.00 0.00 0.00 76 1009.0
20260509231103 21 179 0.0 0.0 0.00 0.00 0.00 76 1008.8
20260509230503 21 176 0.0 0.0 0.00 0.00 0.00 75 1008.8
20260509230011 21 152 0.0 0.0 0.00 0.00 0.00 76 1008.9
20260509225604 21 185 0.0 0.0 0.00 0.00 0.00 76 1008.9
20260509225003 21 200 0.0 0.0 0.00 0.00 0.00 75 1008.9
20260509224508 21 183 0.0 4.8 0.00 0.00 0.00 73 1008.8
20260509224103 21 216 0.0 4.8 0.00 0.00 0.00 74 1008.7
20260509223503 21 222 0.0 0.0 0.00 0.00 0.00 73 1008.6
20260509223011 21 225 0.0 0.0 0.00 0.00 0.00 72 1008.6
20260509222602 21 161 0.0 0.0 0.00 0.00 0.00 73 1008.7
20260509222004 21 218 0.0 0.0 0.00 0.00 0.00 73 1008.4
20260509221512 21 218 0.0 0.0 0.00 0.00 0.00 71 1008.4
20260509221106 21 214 0.0 0.0 0.00 0.00 0.00 70 1008.4
20260509220502 22 200 0.0 1.6 0.00 0.00 0.00 70 1008.6
20260509220010 22 183 0.0 1.6 0.00 0.00 0.00 71 1008.7
20260509215602 22 167 0.0 0.0 0.00 0.00 0.00 71 1008.6
20260509215110 22 203 0.0 0.0 0.00 0.00 0.00 72 1008.6
20260509214508 22 169 0.0 0.0 0.00 0.00 0.00 70 1008.6
20260509214101 22 169 0.0 0.0 0.00 0.00 0.00 69 1008.5
20260509213502 22 202 0.0 14.5 0.00 0.00 0.00 69 1008.5
20260509213008 22 169 0.0 14.5 0.00 0.00 0.00 67 1008.5
20260509212606 22 131 1.6 14.5 0.00 0.00 0.00 67 1008.4
20260509212002 22 159 0.0 3.2 0.00 0.00 0.00 67 1008.4
20260509211508 22 228 0.0 8.0 0.00 0.00 0.00 66 1008.5
20260509211103 23 139 0.0 8.0 0.00 0.00 0.00 67 1008.4
20260509210505 23 169 0.0 9.7 0.00 0.00 0.00 66 1008.5
20260509210009 23 160 0.0 14.5 0.00 0.00 0.00 66 1008.3
20260509205605 23 207 0.0 14.5 0.00 0.00 0.00 65 1008.3
20260509205003 23 169 0.0 12.9 0.00 0.00 0.00 66 1008.3
20260509204508 23 144 0.0 8.0 0.00 0.00 0.00 66 1008.2
20260509204103 23 176 0.0 16.1 0.00 0.00 0.00 66 1008.2
20260509203503 23 189 0.0 16.1 0.00 0.00 0.00 67 1008.2
20260509203012 22 198 0.0 9.7 0.00 0.00 0.00 68 1008.4